Location: Bjelajci
(45.0103°N, 16.1758°E)
Time: 19:42:11
(UTC+00:00)

CBERS-1 - Pass Details

Date: 14 July 2020
Orbit: 770 x 776 km, 98.6° (Epoch: 05 August)

Event Time Altitude Azimuth Distance (km) Brightness Sun altitude
Rises 00:52:14 0° 17° (NNE) 3,267 8.8 -18.7°
Reaches altitude 10° 00:54:37 10° 22° (NNE) 2,335 7.8 -18.5°
Maximum altitude 00:59:41 56° 101° (E) 921 4.5 -18.1°
Enters shadow 01:02:41 24° 171° (S) 1,576 5.2 -17.8°
